Theta_e
337 341 342 344 344 344 344 345 350 350 353 353 353 350 348 349 352 353 354 356 357 357 357 356 357 358 355 353 354 355 354 352 352 350 350 350 349 351 355 353 353 355 352 354 356 357 361 363 363 362 365 367 367 369 372 373 373 369 373 373 371 370 369
339 339 338 337 339 342 347 349 352 351 350 350 350 352 351 350 352 353 355 358 359 358 358 356 358 358 355 353 353 355 354 353 352 352 350 351 352 353 356 358 356 357 358 355 359 359 363 361 364 363 364 366 365 369 368 371 372 371 369 372 370 372 370
337 338 338 339 342 344 346 348 351 350 350 351 351 350 349 351 353 355 356 358 360 360 359 357 358 359 356 356 353 354 354 354 353 351 349 348 349 346 351 357 359 359 356 356 361 359 359 360 362 365 363 362 361 367 368 369 371 371 371 372 369 367 370
337 338 339 339 342 345 345 348 349 347 346 347 347 349 352 354 356 356 357 358 359 360 360 358 358 357 357 356 354 355 355 355 354 351 347 346 348 346 348 352 358 357 357 353 352 356 354 357 360 363 366 364 365 365 365 365 366 370 370 370 368 367 370
339 338 337 340 341 342 347 349 348 351 352 353 354 355 354 354 355 354 356 357 359 360 361 360 357 358 358 357 353 355 354 353 354 352 350 348 350 349 347 346 353 354 355 355 354 356 362 360 359 360 363 365 365 367 366 367 366 369 369 369 367 366 366
338 334 341 341 342 346 347 347 349 348 348 349 350 352 353 354 354 353 354 356 360 362 363 362 360 361 359 356 356 356 358 355 355 356 353 352 354 350 349 351 351 353 352 356 356 355 358 362 358 359 360 361 361 361 362 363 362 364 368 368 366 364 361
329 334 339 340 342 342 342 344 343 348 352 351 352 353 354 353 352 352 353 355 359 360 361 361 360 360 360 360 359 359 359 357 357 355 356 353 355 355 354 354 355 355 355 357 357 357 355 359 360 361 361 359 360 359 360 362 361 363 365 366 366 366 367
331 331 342 340 340 341 340 340 343 347 350 350 349 351 355 353 353 355 354 355 358 360 361 361 360 361 361 361 358 357 359 358 357 358 357 354 353 355 356 356 356 358 359 356 358 359 356 357 359 362 362 361 361 361 361 363 365 362 363 364 365 364 362
329 336 336 340 341 340 341 343 344 347 349 349 348 353 351 351 350 350 351 357 357 360 360 361 361 361 363 361 360 360 360 359 359 358 356 353 352 351 352 356 357 358 359 356 355 360 359 358 357 361 364 362 362 362 361 363 363 363 362 363 364 363 362
328 333 336 346 342 340 346 348 349 349 348 347 348 351 351 351 349 349 353 357 358 359 361 362 361 362 362 361 359 358 361 361 361 357 355 355 353 351 352 355 355 358 358 358 356 357 360 361 359 362 364 363 363 363 360 363 361 361 361 362 363 363 363
326 330 332 332 333 342 345 346 345 347 347 348 347 349 351 352 351 351 353 354 354 358 362 362 362 362 362 361 359 357 359 358 358 357 356 355 354 354 353 355 356 357 356 357 356 357 359 361 362 363 364 362 363 364 360 362 361 360 359 360 362 362 362
328 332 328 331 336 343 344 343 344 345 347 349 347 346 351 352 351 349 350 351 355 358 361 362 363 362 361 361 359 357 359 358 358 358 357 356 355 355 355 355 357 358 358 358 357 358 358 360 361 362 363 363 363 365 363 362 362 362 360 358 359 361 361
332 340 330 330 335 340 343 345 344 347 351 349 347 346 347 351 353 352 352 352 353 356 360 362 362 362 360 361 358 358 358 359 356 359 359 358 357 356 356 356 357 357 357 358 359 357 356 358 361 362 364 365 365 364 364 362 362 363 363 361 360 360 361
342 324 332 335 336 340 345 345 346 350 349 348 347 348 350 353 354 353 354 354 356 357 360 362 361 361 362 361 359 359 358 358 359 361 361 359 358 358 357 357 356 358 360 361 359 357 355 356 359 363 363 365 365 365 366 365 362 364 365 364 362 361 361
336 338 327 329 347 356 344 346 347 349 349 349 348 348 349 350 351 355 357 357 358 358 359 362 362 360 360 361 360 360 359 361 361 361 362 360 360 359 357 358 358 359 360 362 360 359 358 356 358 360 360 362 364 365 365 364 363 363 364 364 363 362 359
332 334 335 338 342 344 349 353 352 353 351 350 348 350 349 352 355 356 356 357 357 359 360 362 361 361 360 360 360 361 361 362 362 361 362 362 361 360 359 359 360 359 360 362 361 361 361 358 359 360 360 360 364 366 364 363 363 358 347 352 363 362 357
332 332 333 336 338 340 347 350 349 349 357 356 353 352 351 355 356 356 355 355 356 359 359 360 361 360 360 360 361 361 362 363 362 362 361 362 362 361 361 360 360 360 361 362 362 361 363 361 358 358 360 360 361 363 363 362 361 347 338 340 348 361 361
330 331 333 334 337 339 341 344 348 352 347 346 350 354 355 360 356 354 353 355 356 357 358 358 360 358 360 361 362 364 363 362 363 362 361 363 363 362 362 361 361 361 361 361 360 361 362 361 359 359 360 361 362 363 363 363 351 336 335 337 338 349 364
328 330 332 334 335 337 339 340 343 347 350 350 351 351 350 352 351 352 355 356 357 358 357 357 357 359 361 361 363 364 364 364 363 362 362 363 363 364 362 362 362 361 360 360 361 362 361 360 360 359 359 360 361 359 362 362 345 332 333 335 336 337 354
327 329 331 332 333 334 337 338 341 344 347 352 356 353 351 351 351 354 355 355 359 359 358 358 358 359 361 362 364 365 365 364 364 362 363 363 364 364 363 362 361 361 361 359 360 362 361 361 360 360 360 359 361 361 361 362 343 328 330 332 333 335 342
324 326 328 329 331 332 334 336 338 341 344 348 354 355 355 348 346 352 355 354 353 357 362 361 361 361 361 363 365 367 366 365 365 364 364 364 365 365 363 362 362 362 360 357 357 360 362 360 359 360 360 359 360 363 359 360 335 326 326 328 329 333 339
323 324 325 327 329 331 332 334 336 338 341 347 350 352 352 353 348 347 349 352 352 355 358 362 364 364 361 364 365 367 367 366 365 366 365 365 365 364 364 363 362 362 361 358 356 358 364 364 361 361 361 360 358 357 358 358 328 325 325 326 327 331 349
322 323 324 327 328 329 332 334 335 337 341 342 345 350 352 352 350 344 344 350 350 352 355 359 364 362 362 363 365 366 367 366 366 366 366 366 365 364 364 363 363 363 363 359 357 357 358 361 360 363 361 361 361 359 359 360 331 323 323 324 325 331 355
321 322 323 325 328 329 331 332 334 336 338 341 345 349 353 355 349 347 348 349 348 349 353 351 359 363 363 362 364 366 367 367 367 367 367 367 365 365 364 365 364 363 364 361 358 356 357 361 363 363 363 361 361 360 361 361 340 318 321 322 322 336 357
320 321 322 323 324 326 327 329 332 335 338 340 342 348 355 356 357 345 348 351 349 349 348 351 358 362 362 362 363 366 368 368 367 367 368 367 366 365 365 364 364 363 364 361 359 359 361 363 362 362 363 361 361 357 360 360 346 315 321 318 319 335 359
317 319 321 322 323 324 326 330 331 331 333 336 340 345 351 356 356 355 349 350 351 348 348 352 356 361 364 363 364 367 369 368 369 369 368 369 368 368 369 368 365 363 361 361 360 359 359 361 361 362 362 361 362 363 362 359 361 329 318 316 317 324 359
317 319 319 320 321 324 324 326 327 329 332 335 340 343 349 356 358 355 356 353 351 349 350 356 359 362 365 365 363 365 369 369 369 369 370 370 369 368 368 367 366 365 363 361 361 360 358 358 359 360 362 361 362 361 362 362 362 340 314 315 316 319 335
316 317 319 320 321 321 321 322 325 327 330 334 337 342 346 353 357 358 358 355 353 354 355 358 361 363 366 366 364 364 367 368 370 370 370 371 371 369 368 369 369 368 365 362 362 361 359 358 358 359 361 362 362 362 362 361 352 350 316 315 314 317 323
314 315 315 317 318 319 320 320 322 325 328 331 335 340 345 350 356 355 361 357 356 356 359 362 363 365 367 367 365 366 368 369 370 369 370 370 371 369 367 368 368 368 367 365 364 363 360 359 359 358 359 361 362 362 364 365 361 338 331 314 313 314 318
314 314 315 317 317 318 319 319 321 323 326 329 334 340 347 354 359 358 362 361 361 359 362 365 365 367 368 366 366 367 368 369 369 371 370 370 370 369 368 368 368 369 368 367 365 362 360 360 360 359 357 357 358 359 360 364 369 338 327 324 312 314 316
312 313 314 314 315 317 318 318 320 322 325 329 334 339 347 359 363 364 365 365 365 363 365 365 365 366 367 366 366 367 368 369 370 370 369 370 370 368 367 368 368 367 369 368 366 364 361 361 360 358 357 356 356 357 358 363 370 357 333 321 315 314 314
312 313 313 314 315 316 318 319 320 321 324 327 332 336 346 362 365 364 367 370 367 366 370 367 367 365 367 367 367 368 369 369 368 369 369 369 369 369 369 368 367 366 368 366 364 364 362 361 359 359 358 356 356 357 359 364 366 365 347 328 322 318 315
312 312 313 314 315 318 316 317 318 320 323 325 330 334 344 361 369 372 372 370 368 367 372 369 368 364 367 367 367 369 369 368 366 367 368 369 368 370 370 368 367 367 366 365 363 363 362 361 359 359 357 357 357 358 360 361 363 366 356 342 335 332 329
313 313 314 315 316 316 315 316 317 320 322 324 328 334 344 359 370 376 374 371 368 368 372 368 366 365 367 367 367 367 368 367 365 364 365 367 366 365 364 366 366 364 365 363 362 361 360 360 359 359 358 358 358 359 360 360 361 363 366 350 343 341 338
314 314 315 316 316 316 314 316 318 319 322 324 328 336 350 361 367 375 372 371 369 368 371 367 363 365 366 365 364 363 363 365 365 365 365 366 365 364 371 367 365 363 364 365 366 364 362 361 361 361 362 362 360 359 359 360 359 363 346 356 334 344 346
314 314 316 317 317 316 315 316 317 320 322 324 329 343 357 360 358 356 361 366 368 368 370 369 366 365 365 364 362 362 362 363 363 363 362 362 361 348 330 310 300 315 366 363 333 324 328 340 363 365 364 362 364 369 362 363 364 343 329 322 321 322 325
314 314 315 317 316 314 314 316 319 320 321 324 333 346 352 354 356 359 360 357 351 351 358 364 365 364 364 363 362 360 362 362 363 363 364 364 361 351 345 343 335 302 296 309 314 306 301 304 312 326 337 362 369 337 311 322 329 321 316 313 316 317 317
315 315 316 317 316 314 314 315 317 319 320 325 337 344 347 351 350 348 350 353 353 349 343 340 345 357 361 361 362 359 360 363 363 363 364 365 363 357 354 353 348 339 307 298 301 300 298 297 298 299 311 329 342 348 350 321 312 309 309 312 313 314 313
Wind_Speed
26 25 22 19 20 20 19 19 16 13 11 12 11 16 19 19 17 16 16 18 20 19 18 18 18 17 18 16 15 14 13 12 10 10 9 8 8 7 8 8 8 7 7 7 7 7 6 6 7 7 7 8 6 5 5 4 4 4 3 2 2 2 2
24 23 21 21 21 21 20 19 16 14 14 15 16 17 17 18 16 17 17 18 21 21 20 20 19 17 18 17 15 15 14 14 13 10 10 8 7 7 7 8 8 8 7 7 7 7 5 8 6 7 7 8 8 6 6 5 5 4 4 3 4 3 2
23 21 21 20 20 19 19 18 18 16 16 16 17 19 20 19 18 18 18 19 21 20 20 20 19 19 18 16 15 16 15 14 13 13 13 12 12 12 9 8 8 8 9 7 6 8 7 7 7 7 8 7 9 8 6 6 6 5 4 4 4 4 3
21 22 23 24 21 20 21 20 20 20 20 21 21 21 18 16 17 17 18 21 22 22 22 20 20 19 17 17 17 16 16 15 15 14 15 14 13 12 10 9 8 8 8 9 7 7 8 8 9 7 8 7 7 8 7 7 7 6 6 5 4 4 4
25 24 22 22 23 19 19 19 20 20 20 20 18 17 14 15 18 19 20 21 23 25 24 23 21 19 16 17 15 14 17 18 16 14 14 13 12 12 11 13 11 11 9 9 9 7 5 8 9 8 8 8 8 7 8 8 7 7 6 5 5 5 4
22 21 18 23 21 21 21 21 22 23 23 23 21 18 15 14 14 21 23 21 23 23 21 20 21 19 18 20 17 16 16 16 15 14 14 13 12 13 13 12 12 12 12 10 9 9 8 7 9 9 10 9 9 10 9 9 8 8 7 6 6 6 6
16 17 20 22 21 21 23 21 24 23 22 22 20 17 13 12 11 15 18 22 24 24 24 24 22 21 18 17 17 17 18 18 16 17 15 15 14 13 13 12 12 12 11 9 10 9 10 8 9 10 10 10 10 11 9 8 9 7 6 7 6 6 5
11 18 19 22 22 22 20 20 21 21 20 16 19 16 14 12 10 11 18 20 22 23 23 24 22 20 18 17 17 19 19 19 18 17 15 17 15 14 14 13 12 11 11 12 10 10 11 10 9 10 11 11 10 9 9 9 9 9 7 7 7 7 7
11 10 19 23 25 22 20 20 19 21 20 20 19 15 17 14 15 17 17 18 20 23 24 23 23 21 17 17 17 18 18 18 17 17 18 20 17 19 18 15 14 12 12 13 12 11 10 11 11 10 10 11 9 9 9 9 10 9 8 8 8 8 8
14 8 10 19 20 21 19 19 19 17 17 15 15 15 17 16 16 18 19 18 21 25 25 24 22 20 19 19 20 21 19 18 17 20 20 20 17 19 19 17 16 13 14 14 13 12 11 11 12 10 10 11 10 10 9 9 10 10 9 9 9 9 9
11 16 11 14 17 22 23 22 19 16 17 16 17 18 17 19 19 19 20 20 22 23 23 22 20 20 21 21 22 21 19 21 20 20 21 20 18 20 20 18 16 14 16 15 14 13 12 10 11 10 10 11 11 10 11 10 11 11 11 10 9 10 10
8 11 16 14 11 22 24 22 19 18 18 17 19 20 19 20 20 22 19 21 20 20 22 21 20 21 20 20 21 20 22 21 20 21 22 21 19 20 19 18 17 16 15 15 15 12 13 12 11 11 11 11 11 10 11 10 10 11 11 12 11 10 10
6 1 16 15 15 19 19 17 20 18 17 19 21 19 18 21 21 20 18 20 20 21 21 20 20 18 20 21 21 19 21 21 20 19 20 19 18 17 17 18 18 18 17 15 15 15 14 14 12 11 11 11 11 11 10 11 11 10 11 11 10 10 10
11 5 10 9 11 10 16 19 20 18 20 21 21 21 20 20 19 19 18 20 20 22 21 18 19 18 18 19 18 18 21 20 19 18 17 16 15 14 16 16 16 15 14 13 15 16 14 15 15 11 12 12 12 11 10 11 11 10 11 11 10 10 10
22 21 8 9 9 6 8 18 16 20 22 21 22 21 22 21 21 18 18 19 19 19 21 19 17 18 19 18 17 17 18 16 16 15 15 15 15 14 15 15 14 13 12 13 13 13 14 14 15 14 13 13 12 12 11 12 12 11 11 11 11 10 10
18 16 20 19 17 15 14 8 12 16 19 19 21 21 22 18 17 18 19 19 19 18 18 16 17 16 18 19 18 16 16 15 14 15 15 15 15 14 14 14 13 13 12 13 14 12 12 12 12 16 15 14 13 13 12 11 11 12 17 15 11 11 10
15 17 17 18 16 17 15 16 16 11 6 9 15 19 17 14 16 17 21 19 20 18 17 18 16 17 17 17 16 15 15 14 14 14 15 15 15 14 14 13 13 12 12 12 14 13 11 11 12 15 15 15 14 15 14 13 12 17 16 17 16 12 10
16 16 17 17 16 16 15 16 15 11 10 15 12 10 5 5 13 17 18 18 19 19 19 18 18 18 16 16 14 14 16 15 15 15 15 15 15 15 15 13 12 13 13 12 14 13 12 13 12 11 13 14 15 15 14 13 14 18 18 17 17 14 11
14 15 16 15 15 15 16 15 13 11 8 1 5 7 8 13 12 12 14 14 15 16 18 17 19 17 15 15 15 14 15 14 15 16 15 16 15 15 14 14 13 13 14 14 12 13 13 12 12 11 11 13 14 14 14 13 15 17 20 19 19 18 13
13 14 14 14 15 15 14 14 12 10 12 12 5 8 9 14 16 9 12 10 11 15 15 14 16 15 15 15 15 15 15 15 15 16 16 15 14 14 15 15 14 14 13 13 11 12 13 14 13 11 11 11 12 13 12 13 13 18 20 20 21 20 16
13 13 13 13 13 14 13 13 15 14 13 12 9 9 11 11 12 7 7 10 11 12 10 11 12 13 14 14 14 14 14 15 15 15 14 15 15 14 15 16 14 14 13 14 13 11 12 13 13 12 12 12 10 11 13 14 15 18 20 21 21 21 17
13 13 13 12 13 12 12 13 13 15 15 14 14 10 10 11 10 10 9 10 11 11 11 10 10 13 14 13 14 15 15 15 15 14 14 15 15 15 16 15 15 15 13 12 13 12 10 10 11 12 12 12 12 11 12 12 17 20 20 22 21 22 11
13 13 13 12 12 12 12 12 12 14 15 15 14 15 12 11 12 13 14 15 12 9 13 13 10 13 15 15 15 15 16 16 16 15 15 15 15 16 16 15 15 13 11 12 13 13 14 13 14 11 12 12 11 13 10 10 13 19 22 22 23 15 11
14 14 14 13 13 13 13 13 14 14 13 16 16 15 14 15 12 11 12 12 14 15 14 16 14 14 16 17 17 16 16 15 16 15 15 15 16 16 15 14 12 14 13 14 14 15 15 14 13 12 13 13 13 13 10 9 11 19 20 23 22 19 14
14 14 14 14 15 15 16 15 15 15 15 15 16 16 17 16 14 16 15 14 17 16 14 16 16 16 17 18 18 15 15 15 15 15 15 15 15 15 14 15 14 13 12 14 14 13 12 12 13 13 12 15 15 16 13 12 10 18 19 20 20 18 12
16 16 15 15 14 16 16 15 15 15 15 16 16 17 18 18 16 17 18 17 15 18 20 21 19 16 16 16 15 14 14 15 15 15 15 15 15 13 13 12 13 14 14 14 13 12 13 13 13 14 13 12 13 12 14 15 8 15 20 20 20 21 13
15 15 16 16 16 17 15 15 14 16 17 16 16 17 18 17 17 14 12 17 18 20 20 18 15 13 13 14 16 16 16 15 15 16 15 15 14 15 14 13 14 14 14 15 14 12 12 13 13 14 12 13 12 13 15 14 11 14 21 21 22 23 18
16 17 16 16 17 17 17 17 18 19 19 18 18 18 17 17 17 12 10 15 18 18 16 14 13 12 13 15 16 17 17 17 14 15 14 14 13 14 14 13 14 13 15 15 13 13 13 11 11 12 12 11 12 11 12 14 18 11 18 22 23 23 24
17 17 18 19 20 20 19 18 18 19 21 20 20 17 17 19 19 13 10 16 18 17 12 12 13 13 13 14 15 14 15 15 16 14 13 14 14 15 14 13 14 13 13 13 12 12 12 11 10 10 10 10 9 9 10 10 13 17 16 20 22 23 23
15 16 17 18 18 18 20 18 18 20 21 20 19 18 19 18 17 12 10 14 14 13 10 11 13 13 13 14 15 14 15 15 15 14 13 14 14 14 14 14 13 12 11 12 11 11 11 11 11 9 9 11 10 10 9 9 8 14 21 18 23 22 24
14 16 17 18 19 19 19 18 20 20 22 21 21 20 18 18 15 12 11 11 11 12 11 12 13 14 14 15 15 14 14 14 14 14 14 14 15 14 14 14 14 11 11 12 11 10 11 11 11 11 10 9 9 9 9 8 8 8 15 23 22 24 24
14 15 17 18 18 20 20 20 20 20 22 23 22 20 18 17 16 14 11 9 11 12 10 12 13 15 15 15 14 14 14 15 16 15 15 15 13 13 12 13 13 12 11 12 11 10 11 11 10 11 11 10 10 9 9 8 8 8 9 12 18 19 23
13 14 15 18 18 19 19 20 20 21 23 24 23 19 19 18 17 10 9 11 11 12 10 12 14 14 14 15 14 13 13 15 13 13 14 14 12 12 11 12 11 11 11 11 12 11 11 11 11 11 11 11 10 9 8 9 8 9 8 8 7 7 10
14 14 13 13 15 17 19 19 20 21 22 21 20 18 18 16 15 6 7 10 11 12 11 12 14 14 15 16 14 13 14 14 16 16 13 13 14 14 15 12 13 13 12 13 13 14 12 12 12 12 12 12 11 9 9 10 9 10 9 9 8 8 8
12 13 12 14 16 17 16 18 20 22 22 22 20 19 16 14 13 9 10 9 9 10 11 12 14 15 16 16 15 16 13 14 13 14 13 13 14 13 9 11 15 14 12 13 12 12 12 13 11 11 11 10 10 10 10 10 10 10 9 14 16 14 10
11 13 12 13 13 15 17 18 18 19 21 20 19 18 15 11 8 11 9 3 5 8 9 10 12 14 14 14 14 14 14 13 14 14 14 14 14 8 6 9 12 5 8 12 5 5 4 8 10 10 10 9 10 9 11 11 9 7 13 19 20 19 21
11 12 13 13 16 18 19 20 20 20 21 19 18 14 11 8 8 9 7 4 5 9 9 5 8 11 12 12 13 14 14 14 13 14 12 13 11 9 8 6 7 13 14 10 7 8 10 8 6 4 4 9 7 4 7 3 9 13 15 18 20 20 19
11 12 12 10 12 16 18 20 19 19 20 16 14 12 12 9 9 10 11 12 9 5 7 7 12 8 10 12 12 12 13 12 12 13 12 11 10 10 11 9 8 6 12 12 10 10 11 10 9 7 4 1 7 9 3 3 2 13 17 18 20 20 20
Wind_Direction
176 182 184 180 181 187 185 185 181 180 174 174 176 186 194 189 192 189 187 180 183 183 184 183 182 182 184 185 186 185 186 185 183 185 185 187 187 182 175 181 188 195 193 189 191 201 186 194 183 189 175 180 194 207 194 190 194 204 211 201 197 285 298
178 182 182 181 185 185 183 181 178 181 180 182 187 191 196 194 190 190 186 182 184 185 185 185 184 186 186 186 186 184 186 185 185 184 186 187 188 189 185 183 189 194 200 194 184 192 195 191 190 183 184 172 191 199 198 188 194 199 203 189 196 197 223
176 178 180 183 179 182 183 181 179 183 184 185 186 192 197 194 191 189 183 180 183 187 188 187 186 185 187 185 184 186 186 185 184 184 187 188 189 194 193 190 191 194 201 207 190 181 195 192 189 186 187 185 190 194 196 193 190 199 208 191 190 199 204
173 183 184 182 183 180 180 181 180 188 194 192 193 196 196 195 191 189 184 183 183 185 187 188 187 187 185 184 185 186 186 186 186 186 190 191 191 194 193 194 195 199 198 202 210 200 197 189 187 188 188 188 191 187 195 197 195 197 203 200 197 207 197
180 188 179 174 179 179 176 178 181 185 185 186 179 185 184 196 197 192 189 188 187 188 188 187 186 188 187 185 186 186 187 187 186 188 190 191 189 192 195 198 196 203 202 198 203 210 206 180 184 188 186 192 189 192 189 191 198 190 197 197 204 211 199
181 185 161 169 174 175 177 180 183 185 190 189 186 182 185 193 199 200 200 191 190 190 189 188 188 187 187 188 186 185 185 187 187 186 189 189 186 190 196 197 198 200 205 200 198 204 207 191 185 184 191 192 196 197 194 192 200 198 190 195 203 211 213
179 176 165 174 174 174 178 182 186 187 184 187 182 179 180 180 193 211 212 199 191 191 190 190 191 189 188 188 188 183 183 185 185 189 188 190 190 190 194 197 199 197 203 199 201 197 202 201 189 182 190 198 199 201 192 189 195 196 189 192 199 209 217
181 168 155 169 170 175 180 181 183 185 183 174 180 174 156 162 181 217 215 208 198 193 191 191 190 189 186 188 188 188 185 187 185 187 188 192 191 193 192 197 198 198 195 204 199 197 198 201 193 185 187 199 197 204 191 186 187 191 192 189 199 206 213
206 182 169 172 173 174 174 177 180 183 183 184 176 158 172 174 186 191 211 218 206 195 192 191 190 189 184 186 186 186 183 185 186 186 189 192 193 196 197 196 198 196 197 201 203 194 199 195 197 188 189 197 197 199 196 184 187 191 194 193 197 202 210
192 193 191 171 179 172 165 171 173 174 175 180 186 170 174 185 190 197 198 202 206 198 194 191 190 188 185 186 188 186 181 182 184 187 189 192 192 195 197 197 198 195 198 200 204 197 194 194 193 191 191 195 197 194 197 186 186 192 198 197 196 200 208
200 178 197 205 184 163 169 168 171 174 178 182 182 179 181 187 189 192 195 191 205 209 197 193 189 187 186 187 187 185 183 185 185 188 190 192 194 196 197 196 195 194 198 199 203 200 190 193 191 192 193 195 197 193 194 190 187 190 199 202 199 199 205
214 183 188 195 168 155 166 172 174 175 177 185 187 188 181 186 193 197 193 198 206 208 198 193 190 189 185 186 186 185 185 185 186 188 191 193 194 196 196 197 194 194 194 198 199 199 189 190 191 192 195 197 197 195 191 193 191 191 199 204 202 199 203
333 247 180 182 177 161 173 166 174 175 179 180 186 190 185 187 191 190 192 195 198 205 199 192 190 187 185 186 188 185 187 187 188 188 191 191 193 193 193 196 196 195 195 196 198 198 195 189 191 191 195 195 196 199 192 193 195 195 199 204 205 200 200
359 230 154 166 168 159 154 168 170 174 180 184 190 194 192 186 187 193 192 196 194 200 197 191 190 186 183 186 187 186 188 189 187 187 188 190 190 190 192 195 197 194 192 192 197 199 200 191 190 189 194 194 196 199 196 193 196 198 199 203 206 201 199
27 4 131 90 38 28 145 172 173 175 176 185 191 194 193 190 194 193 194 197 195 198 196 188 188 186 184 185 188 186 188 186 186 185 185 187 187 191 192 193 194 193 188 186 195 199 201 198 189 192 195 198 196 199 201 197 200 200 199 201 206 209 204
26 25 25 31 31 29 26 32 177 179 181 187 193 195 193 190 187 191 193 192 193 195 194 182 187 186 186 187 189 186 184 183 183 183 183 183 186 191 191 191 191 192 191 184 190 196 199 204 188 189 193 196 193 197 202 202 202 201 198 197 202 207 212
26 16 20 24 21 18 19 30 31 22 331 216 200 190 189 186 185 189 196 195 195 196 193 184 185 186 187 189 188 183 181 181 183 181 183 184 185 187 191 192 188 190 191 186 186 191 195 203 197 190 193 196 197 197 202 205 205 194 192 196 200 204 210
17 14 15 18 18 13 13 15 23 24 359 324 344 347 280 211 187 191 197 195 197 197 197 191 186 188 187 186 183 181 182 183 181 182 184 183 185 185 189 191 189 189 190 190 185 187 191 199 204 196 189 194 199 199 201 206 202 185 187 191 198 204 208
12 12 9 16 13 7 3 3 360 358 18 40 292 281 263 283 260 213 203 199 195 194 199 195 191 186 185 183 182 182 183 182 182 183 183 186 184 183 185 189 191 190 190 192 186 183 190 197 201 203 199 191 195 202 202 206 200 182 183 188 193 202 208
14 7 5 11 5 358 357 344 345 345 339 333 291 250 248 231 227 222 201 215 200 197 198 197 191 184 181 182 180 181 182 183 185 184 185 184 182 181 184 188 193 192 191 191 188 186 190 195 200 204 207 203 193 196 203 208 191 182 184 187 192 198 201
7 5 359 359 355 352 348 337 331 335 332 331 336 314 299 262 231 236 209 195 224 208 202 205 187 180 180 181 178 178 182 185 187 187 184 183 183 183 186 189 190 192 191 193 194 189 189 194 199 203 207 210 204 193 200 212 181 179 184 189 192 197 198
358 0 353 350 345 342 340 333 327 321 322 320 315 296 274 282 262 230 207 209 214 222 209 210 189 175 176 179 179 180 184 185 187 187 185 183 184 185 187 189 190 190 188 192 197 196 187 193 203 203 206 208 210 212 203 208 173 180 183 189 194 193 191
355 351 346 341 340 333 328 326 324 322 319 312 310 310 296 267 239 234 223 191 212 214 211 210 194 179 176 181 181 181 183 186 187 187 185 184 185 188 188 188 188 190 188 191 194 193 193 195 202 205 207 207 208 215 214 209 177 180 184 188 192 183 191
349 345 341 339 333 329 333 333 328 315 307 304 299 291 285 275 257 222 225 202 203 205 200 203 204 187 180 183 183 182 183 185 186 187 185 185 189 189 189 187 186 189 188 191 193 197 195 195 199 204 208 207 208 209 211 213 176 183 186 189 185 181 190
343 341 338 338 335 334 335 326 319 308 300 292 287 283 278 265 255 236 222 203 203 201 200 208 200 188 184 185 184 181 180 183 185 187 186 188 190 189 187 189 187 189 187 193 198 199 193 191 197 203 207 209 209 206 205 216 180 185 182 188 182 186 194
339 338 336 337 337 338 326 323 319 317 310 301 297 297 295 284 250 237 213 201 203 205 202 201 202 191 187 182 180 177 177 184 185 187 187 185 186 187 186 184 187 190 191 195 197 198 197 192 196 203 207 207 208 201 203 211 185 181 183 181 183 188 191
335 334 334 337 339 336 331 328 324 316 310 301 297 295 292 288 270 245 214 196 199 209 206 199 194 187 178 180 182 181 179 183 184 186 187 186 184 187 187 188 190 189 189 194 198 198 200 198 195 202 205 209 207 208 203 209 198 176 183 183 183 191 190
335 333 334 336 337 339 336 328 324 317 313 308 302 297 292 290 272 247 220 201 200 207 206 188 183 182 176 177 184 185 182 183 182 184 184 186 184 185 190 190 191 190 188 195 195 196 197 198 195 198 202 208 204 207 206 198 203 165 189 186 187 189 194
335 335 335 337 338 338 336 329 323 319 313 308 305 300 294 290 277 248 224 203 199 200 198 174 175 178 174 174 182 184 183 183 180 182 184 186 187 187 190 189 193 192 187 194 195 194 195 196 198 197 197 200 203 203 206 198 197 169 178 191 190 192 197
334 333 333 334 334 331 331 326 321 315 311 308 305 301 294 284 276 251 221 205 195 189 180 169 169 171 171 174 181 182 183 183 183 182 185 186 186 190 189 189 192 189 187 190 191 190 193 193 198 202 201 200 200 203 204 203 188 172 175 182 191 196 198
338 336 335 334 330 328 328 323 317 313 310 309 307 303 296 288 279 258 218 202 182 177 175 170 169 170 170 176 180 183 183 182 184 184 186 187 187 189 190 187 188 189 185 187 192 192 191 192 193 199 204 205 203 203 205 195 177 155 178 179 188 195 200
337 339 335 331 329 330 328 323 318 315 312 310 308 306 299 296 286 256 214 189 175 172 173 169 167 170 172 175 179 184 183 181 186 185 189 189 188 189 190 188 186 188 183 185 191 192 191 191 191 196 202 207 209 206 201 191 186 161 167 185 188 194 199
332 334 332 329 327 328 328 326 320 316 314 310 308 307 302 302 296 243 191 178 171 173 169 170 167 171 170 173 179 184 185 182 187 186 188 189 184 184 186 189 188 188 184 185 191 192 192 189 190 194 198 205 207 206 201 196 193 177 165 162 167 187 196
325 324 325 325 324 327 324 321 316 312 311 308 305 301 296 296 304 241 180 172 174 173 168 169 170 173 174 174 178 184 186 184 181 181 186 186 184 187 192 191 192 191 186 187 188 192 191 188 192 193 196 201 202 203 202 205 201 196 167 173 168 171 170
320 315 318 327 331 329 324 317 312 309 308 304 302 297 289 295 315 296 189 178 181 176 169 171 173 176 176 176 181 188 188 185 180 183 184 182 189 187 187 195 195 192 194 194 193 195 191 193 194 195 198 198 199 198 204 208 208 208 175 174 177 171 168
317 315 316 325 324 324 317 310 304 303 307 304 300 300 295 310 319 330 334 318 207 190 181 173 178 180 180 182 186 189 185 186 184 183 189 186 182 126 95 47 52 31 190 187 101 107 179 193 192 192 193 198 200 197 203 208 207 177 166 161 172 176 177
317 316 322 330 330 327 321 317 312 311 307 303 305 310 321 321 328 339 343 17 10 359 345 285 197 182 184 184 190 191 185 187 181 183 187 185 162 143 121 110 64 49 47 53 85 96 86 83 92 129 170 194 185 69 52 74 154 168 164 160 167 173 177
313 310 319 327 326 313 316 322 311 306 305 299 303 328 330 344 2 3 349 358 355 16 72 17 314 269 200 190 194 187 181 188 181 180 184 177 150 148 151 146 139 91 37 46 63 70 75 70 61 59 68 125 141 133 70 52 137 152 153 164 166 173 178